Content
SEND FEEDBACK

Daily
Averages
Monthly
Summary
United States of America

RALEIGH, NORTH CAROLINA


Home > North America > United States > North Carolina
Elevation: 376 feet     Latitude: 35 52N     Longitude: 078 47W

WEATHER
 
SELECT A DAY
Number of Records: 195,275;   Date Range: 1/1/95 - 9/29/14
 
SHARE

PRINT THIS DATA

[ ← Previous Day ]
WEATHER ALMANAC - JULY 11, 2014
[ Next Day → ]
[ °C ]   °F
Weather ElementAverageHighLow
Temperature75.2 °F84.9 °F (11:51 am)70 °F (3:51 am)
Dewpoint67.5 °F69.8 °F (2:36 am)64.4 °F (1:51 am)
Humidity78.2 %94 % (7:31 pm)51 % (11:51 am)
Barometer29.12 in30.21 in (10:24 pm) (7:00 pm)
Wind Speed2.3 mph6.9 mph (12:51 pm)
Weather ElementAverage
Visibility9.2 mi
Wind DirectionNE (43.4 °)

Weather ElementTotal
Precipitation---
Cooling Degree Days12.5 (Base 65)
Growing Degree Days27.5 (Base 50)
Averaged from 29 records on July 11, 2014
WEATHER CONDITIONS BREAKOUT
WIND DIRECTION BREAKOUT
WEATHER BY HOUR - JULY 11, 2014
[ °C ]   °F
Local TimeTemperatureDewpointHumidityBarometerVisibilityWind DirectionWind SpeedGust SpeedPrecipitationEventsConditions
12:37 AM71.6 °F69.8 °F94 %30.13 in10.0 miCalmMostly Cloudy
12:51 AM72.0 °F69.1 °F91 %30.12 in10.0 miCalmMostly Cloudy
1:51 AM71.1 °F69.1 °F93 %30.11 in7.0 miCalmMostly Cloudy
2:51 AM72.0 °F69.1 °F91 %30.11 in9.0 miCalmMostly Cloudy
3:51 AM70.0 °F68.0 °F93 %30.10 in7.0 miCalmMostly Cloudy
4:51 AM70.0 °F68.0 °F93 %30.11 in7.0 miCalmMostly Cloudy
5:51 AM71.6 °F68.0 °F88 %30.13 in8.0 miCalmOvercast
6:22 AM71.6 °F68.0 °F88 %30.14 in7.0 miCalmMostly Cloudy
6:34 AM71.6 °F68.0 °F88 %30.13 in7.0 miCalmFogPatches of Fog
6:51 AM70.0 °F68.0 °F93 %30.13 in7.0 miCalmFogPatches of Fog
7:14 AM71.6 °F68.0 °F88 %30.14 in8.0 miESE (120°)3.5 mphMostly Cloudy
7:51 AM72.0 °F68.0 °F87 %30.15 in10.0 miNE (40°)3.5 mphOvercast
8:51 AM73.0 °F68.0 °F84 %30.18 in10.0 miENE (60°)4.6 mphOvercast
9:51 AM73.0 °F68.0 °F84 %30.19 in10.0 miEast (80°)5.8 mphOvercast
10:51 AM75.2 °F66.2 °F73 %0.00 in10.0 miEast (80°)4.6 mphOvercast
11:05 AM75.2 °F68.0 °F78 %30.21 in10.0 miCalmOvercast
11:51 AM75.9 °F66.9 °F74 %30.20 in10.0 miCalmOvercast
12:51 PM78.1 °F66.0 °F66 %30.20 in10.0 miEast (90°)4.6 mphOvercast
1:51 PM80.6 °F66.2 °F61 %30.20 in10.0 miESE (110°)3.5 mphMostly Cloudy
2:51 PM82.9 °F66.9 °F58 %30.17 in10.0 miEast (90°)6.9 mphMostly Cloudy
3:51 PM82.4 °F64.4 °F54 %30.17 in10.0 miEast (100°)3.5 mphMostly Cloudy
4:51 PM84.9 °F64.9 °F51 %30.16 in10.0 miCalmMostly Cloudy
5:51 PM84.0 °F66.0 °F55 %30.15 in10.0 miEast (90°)6.9 mphScattered Clouds
6:51 PM84.0 °F66.9 °F56 %30.15 in10.0 miVariable3.5 mphScattered Clouds
7:51 PM81.0 °F66.9 °F62 %30.17 in10.0 miESE (110°)5.8 mphScattered Clouds
8:51 PM78.1 °F68.0 °F71 %30.17 in10.0 miSE (140°)5.8 mphScattered Clouds
9:51 PM75.9 °F68.0 °F76 %30.19 in10.0 miSSE (150°)3.5 mphPartly Cloudy
10:51 PM72.0 °F68.0 °F87 %30.20 in10.0 miCalmClear
11:51 PM70.0 °F66.9 °F90 %30.20 in10.0 miCalmClear
Hourly data recorded from KRDU, located miles away from Raleigh, North Carolina







STORIES FROM OUR PARTNERS